ATLAS CENTAUR 2 DEB, 701

Orbit data source: Space-Track

ATLAS CENTAUR 2 DEB, 701 is space debris in LEO originally from a launch on Wed, 27 Nov 1963 UTC launched from the Air Force Eastern Test Range (AFETR). Debris objects in space refer to the collection of defunct objects orbiting the Earth. Examples of debris include non-operational satellites, rocket bodies, and fragments generated from explosions, collisions, or faulty payload assembly.

Loading next visibility...
Identifier
701, 1963-047G
Orbit
LEO
Country
Flag of USUS
Related business
Manufacturer
GD/Convair
Mission
Spacecraft
Bus & Motor
CENTAUR PART, Unknown motor
Mass
Unknown
Launch date (UTC)
1963-11-27 (63 years ago)
Launch vehicle
Unknown
Launch site
Air Force Eastern Test Range (AFETR)
Object type
Payload
Rocket body
Debris
Shape & HBR
Unknown shape, 0.5 m
Radar Cross Section
Medium (>0.1 m² and <1 m²)

Expand to show TLE details & history
Last TLE update: 9 hours ago

TLE from 9 hours ago
0 ATLAS CENTAUR 2 DEB
1   701U 63047G   26237.64477951  .00001388  00000-0  43478-3 0  9990
2   701  30.0095  92.2176 0503420 144.3264 219.2061 13.83440261119848
Epoch: 2026-08-25T15:28Z
TLE epoch observation values (Epoch: 2026-08-25T15:28:28.949Z)
Latitude
-0.00003°
Longitude
-113.81223°
Altitude
1,243.073 km
Speed
7.09 km/s
True Right ascension
06h 08m 52s
True Declination
0° 00' 00"
Sunlit
Object was in daylight at epoch
Visualization orbit readout
Latitude
Unknown
Longitude
Unknown
Altitude
Unknown
Speed
Unknown
Apparent Right ascension
Unknown
Apparent Declination
Unknown
Sunlit
N/A
Visualization observer readout
Local Sidereal Time
15:52:58
Azimuth
Unknown
Elevation
Unknown
Doppler factor
Unknown
Orbital elements
Apogee altitude
1,324.673 km
Perigee altitude
586.295 km
Semi-major axis
7,333.621 km
Eccentricity
0.05034
Inclination
30.0095°
RAAN
92.2176°
Arg. of periapsis
144.3264°
True anomaly
215.73154°
Mean anomaly
219.2061°
Eccentric anomaly
217.45211°
Mean motion
3.45593 °/min
Orbital period
104.17 mins
BSTAR
0.00043478
Loading maneuver chart data...
Computing Atmospheric mass density...

Documentation

Showing up to 5 results
|